Left ArrowRight Arrow

Hourly Observations for April 24, 2019

Temp ( °F °C ) Dew Point ( °F °C ) Humidity (%) Winds ( mph kmh ) Pressure ( in mb ) Visibility ( mi km ) Precip ( " mm )
12:53 am 00:53 Partly Cloudy 75 23.9 66 18.9 74 74 ESE 7 11 30.03 1017 10 16 0.00 0.00
1:53 am 01:53 Cloudy 76 24.4 65 18.3 69 69 SE 7 11 30.02 1017 10 16 0.00 0.00
2:53 am 02:53 Cloudy 76 24.4 65 18.3 69 69 S 3 6 30.00 1016 10 16 0.00 0.00
3:53 am 03:53 Mostly Cloudy 75 23.9 65 18.3 71 71 NE 6 9 29.99 1016 10 16 0.00 0.00
4:12 am 04:12 Cloudy 75 24 64 18 69 69 VRB 3 6 29.99 1015 10 16 0.00 0.00
4:39 am 04:39 Cloudy 75 23.9 67 19.4 76 76 SE 9 15 29.99 1015 10 16 0.00 0.00
4:53 am 04:53 Cloudy 74 23.3 67 19.4 79 79 SSE 8 13 29.99 1016 10 16 0.00 0.00
5:53 am 05:53 Mostly Cloudy 74 23.3 66 18.9 76 76 ESE 5 7 29.99 1016 10 16 0.00 0.00
6:53 am 06:53 Mostly Cloudy 76 24.4 66 18.9 72 72 NW 8 13 30.01 1016 10 16 0.00 0.00
7:53 am 07:53 Mostly Cloudy 77 25 67 19.4 71 71 W 8 13 30.02 1017 10 16 0.00 0.00
8:53 am 08:53 Partly Cloudy N/A N/A N/A WSW 5 7 30.04 1017 10 16 0.00 0.00
9:53 am 09:53 Partly Cloudy 79 26.1 67 19.4 67 67 W 9 15 30.02 1017 10 16 0.00 0.00
10:53 am 10:53 Partly Cloudy 81 27.2 67 19.4 62 62 WSW 9 15 30.01 1016 10 16 0.00 0.00
11:53 am 11:53 Partly Cloudy 82 27.8 68 20 63 63 W 10 17 29.99 1016 10 16 0.00 0.00
12:53 pm 12:53 Partly Cloudy 81 27.2 67 19.4 62 62 SSW 13 20 29.97 1015 10 16 0.00 0.00
1:53 pm 13:53 Mostly Cloudy 83 28.3 68 20 61 61 SW 10 17 29.96 1014 10 16 0.00 0.00
2:53 pm 14:53 Mostly Cloudy 81 27.2 68 20 65 65 SSW 12 19 29.94 1014 10 16 0.00 0.00
3:53 pm 15:53 Partly Cloudy 82 27.8 68 20 63 63 SSW 13 20 29.93 1014 10 16 0.00 0.00
4:53 pm 16:53 Partly Cloudy 80 26.7 69 20.6 69 69 S 14 22 29.93 1013 10 16 0.00 0.00
5:53 pm 17:53 Partly Cloudy 80 26.7 69 20.6 69 69 S 9 15 29.95 1014 10 16 0.00 0.00
6:53 pm 18:53 Mostly Cloudy 79 26.1 69 20.6 72 72 SSE 10 17 29.96 1015 10 16 0.00 0.00
7:53 pm 19:53 Mostly Cloudy 78 25.6 68 20 71 71 SE 6 9 29.98 1015 10 16 0.00 0.00
8:53 pm 20:53 Mostly Cloudy 78 25.6 65 18.3 64 64 E 12 19 29.99 1016 10 16 0.00 0.00
9:53 pm 21:53 Mostly Cloudy 76 24.4 67 19.4 74 74 N 9 15 30.00 1016 10 16 0.00 0.03
10:53 pm 22:53 Mostly Cloudy 76 24.4 68 20 77 77 SE 14 22 29.99 1016 10 16 0.00 0.00
11:53 pm 23:53 Mostly Cloudy 75 24 68 20 78 78 SE 8 13 30.00 1016 10 16 0.00 0.00

Powered by Vaisala Xweather